OEO271 EGGD-EKCH

Flight info

Callsign OEO271
Flight time 1h 41m
Altitude 37000
Route YORQI DCT NUCHU L607 ALHAD P72 IPRIL M197 BRAIN Q295 SOMVA DCT MAVAS DCT MAXUN DCT DOSUR DCT TALSA P729 TUDLO
Aircraft A319/M-SDE3FGHIRWY/LB1

Departure

Time 2026-04-21 18:33
Airport Bristol Airport (EGGD)

Arrival

Time 2026-04-21 20:14
Airport Copenhagen Kastrup Airport (EKCH)
Time Latitude Longitude Altitude Speed Heading
2026-04-21 18:09 51.38556 -2.71403 624 ft 0 kts 356°
2026-04-21 18:25 51.38543 -2.71402 629 ft 4 kts 358°
2026-04-21 18:25 51.38517 -2.71399 621 ft 2 kts 353°
2026-04-21 18:25 51.38495 -2.71396 618 ft 4 kts 358°
2026-04-21 18:25 51.38469 -2.71393 626 ft 4 kts 344°
2026-04-21 18:26 51.38452 -2.71375 625 ft 4 kts 293°
2026-04-21 18:26 51.38448 -2.71336 630 ft 2 kts 266°
2026-04-21 18:26 51.38448 -2.71333 630 ft 1 kts 266°
2026-04-21 18:28 51.38448 -2.71334 615 ft 1 kts 266°
2026-04-21 18:29 51.38446 -2.71390 616 ft 10 kts 267°
2026-04-21 18:29 51.38441 -2.71545 620 ft 16 kts 267°
2026-04-21 18:29 51.38434 -2.71742 617 ft 20 kts 266°
2026-04-21 18:29 51.38431 -2.71973 616 ft 21 kts 271°
2026-04-21 18:30 51.38423 -2.72206 620 ft 21 kts 266°
2026-04-21 18:30 51.38415 -2.72434 616 ft 20 kts 266°
2026-04-21 18:30 51.38406 -2.72662 617 ft 22 kts 266°
2026-04-21 18:30 51.38397 -2.72903 619 ft 22 kts 266°
2026-04-21 18:31 51.38386 -2.73149 621 ft 16 kts 267°
2026-04-21 18:31 51.38367 -2.73296 622 ft 14 kts 235°
2026-04-21 18:31 51.38279 -2.73346 627 ft 15 kts 176°
2026-04-21 18:31 51.38212 -2.73252 629 ft 12 kts 103°
2026-04-21 18:32 51.38219 -2.73122 629 ft 13 kts 86°
2026-04-21 18:32 51.38230 -2.72821 627 ft 56 kts 86°
2026-04-21 18:32 51.38271 -2.71837 630 ft 118 kts 86°
2026-04-21 18:32 51.38340 -2.70306 855 ft 145 kts 84°
2026-04-21 18:33 51.38394 -2.68712 1603 ft 141 kts 87°
2026-04-21 18:33 51.38440 -2.67087 2133 ft 157 kts 87°
2026-04-21 18:33 51.38493 -2.65232 2545 ft 176 kts 87°
2026-04-21 18:33 51.38542 -2.63202 3046 ft 189 kts 87°
2026-04-21 18:34 51.38604 -2.60955 3468 ft 213 kts 87°
2026-04-21 18:34 51.38686 -2.58481 4159 ft 230 kts 87°
2026-04-21 18:34 51.39038 -2.55957 5021 ft 241 kts 64°
2026-04-21 18:34 51.40269 -2.54028 5730 ft 258 kts 38°
2026-04-21 18:35 51.41292 -2.53059 5860 ft 258 kts 36°
2026-04-21 18:35 51.43384 -2.51168 5958 ft 258 kts 34°
2026-04-21 18:35 51.44962 -2.49801 5998 ft 257 kts 34°
2026-04-21 18:35 51.46505 -2.48365 6005 ft 257 kts 36°
2026-04-21 18:36 51.48038 -2.46893 6036 ft 257 kts 37°
2026-04-21 18:36 51.49566 -2.45394 6035 ft 257 kts 37°
2026-04-21 18:36 51.50981 -2.43709 6024 ft 250 kts 54°
2026-04-21 18:36 51.51763 -2.41295 6052 ft 244 kts 77°
2026-04-21 18:37 51.51884 -2.38590 6803 ft 244 kts 95°
2026-04-21 18:37 51.51694 -2.35849 7631 ft 250 kts 96°
2026-04-21 18:37 51.51504 -2.33044 8482 ft 255 kts 96°
2026-04-21 18:37 51.51317 -2.30180 9342 ft 261 kts 96°
2026-04-21 18:38 51.51124 -2.27243 10036 ft 270 kts 96°
2026-04-21 18:38 51.50924 -2.24239 10223 ft 271 kts 96°
2026-04-21 18:38 51.50712 -2.21097 10271 ft 300 kts 96°
2026-04-21 18:38 51.50474 -2.17636 10508 ft 320 kts 96°
2026-04-21 18:39 51.50221 -2.14045 11176 ft 327 kts 96°
2026-04-21 18:39 51.49962 -2.10397 11949 ft 331 kts 96°
2026-04-21 18:39 51.49703 -2.06716 12720 ft 335 kts 96°
2026-04-21 18:39 51.49439 -2.02973 13354 ft 342 kts 96°
2026-04-21 18:40 51.49170 -1.99145 14042 ft 348 kts 96°
2026-04-21 18:40 51.48895 -1.95265 14662 ft 352 kts 96°
2026-04-21 18:40 51.48710 -1.92658 15026 ft 357 kts 95°
2026-04-21 18:40 51.48328 -1.87307 15813 ft 365 kts 95°
2026-04-21 18:41 51.48038 -1.83234 16382 ft 371 kts 95°
2026-04-21 18:41 51.47739 -1.79090 16914 ft 377 kts 95°
2026-04-21 18:41 51.47430 -1.74873 17456 ft 384 kts 95°
2026-04-21 18:41 51.47113 -1.70582 17967 ft 391 kts 94°
2026-04-21 18:42 51.46708 -1.66226 18492 ft 399 kts 100°
2026-04-21 18:42 51.46109 -1.61860 19027 ft 403 kts 101°
2026-04-21 18:42 51.45503 -1.57449 19516 ft 408 kts 101°
2026-04-21 18:42 51.44891 -1.52988 20030 ft 412 kts 100°
2026-04-21 18:43 51.44274 -1.48475 20527 ft 417 kts 100°
2026-04-21 18:43 51.43651 -1.43918 21006 ft 422 kts 100°
2026-04-21 18:43 51.43017 -1.39300 21510 ft 426 kts 100°
2026-04-21 18:43 51.42381 -1.34630 21957 ft 432 kts 99°
2026-04-21 18:44 51.41725 -1.29898 22353 ft 438 kts 100°
2026-04-21 18:44 51.41051 -1.25103 22764 ft 443 kts 99°
2026-04-21 18:44 51.40630 -1.20212 23194 ft 444 kts 89°
2026-04-21 18:44 51.40722 -1.15284 23616 ft 442 kts 77°
2026-04-21 18:45 51.41344 -1.10477 23996 ft 440 kts 68°
2026-04-21 18:45 51.42425 -1.05914 24354 ft 437 kts 58°
2026-04-21 18:45 51.43745 -1.01593 24735 ft 439 kts 57°
2026-04-21 18:45 51.45108 -0.97125 25115 ft 442 kts 58°
2026-04-21 18:46 51.46454 -0.92695 25542 ft 444 kts 57°
2026-04-21 18:46 51.47808 -0.88229 25966 ft 445 kts 57°
2026-04-21 18:46 51.48707 -0.85266 26223 ft 448 kts 57°
2026-04-21 18:46 51.50071 -0.80766 26606 ft 450 kts 57°
2026-04-21 18:47 51.51892 -0.74772 27088 ft 453 kts 57°
2026-04-21 18:47 51.53275 -0.70210 27454 ft 456 kts 57°
2026-04-21 18:47 51.54663 -0.65616 27798 ft 458 kts 57°
2026-04-21 18:47 51.56055 -0.60989 28149 ft 461 kts 57°
2026-04-21 18:48 51.57001 -0.57846 28377 ft 462 kts 57°
2026-04-21 18:48 51.58886 -0.51723 28940 ft 463 kts 57°
2026-04-21 18:48 51.59851 -0.48568 29118 ft 466 kts 57°
2026-04-21 18:48 51.61259 -0.43843 29428 ft 470 kts 58°
2026-04-21 18:49 51.62658 -0.39071 29728 ft 473 kts 58°
2026-04-21 18:49 51.64059 -0.34267 30138 ft 475 kts 58°
2026-04-21 18:49 51.64989 -0.31079 30346 ft 477 kts 58°
2026-04-21 18:49 51.66904 -0.24618 30788 ft 478 kts 59°
2026-04-21 18:50 51.68067 -0.19552 31075 ft 488 kts 68°
2026-04-21 18:50 51.68925 -0.14285 31612 ft 484 kts 69°
2026-04-21 18:50 51.69767 -0.09050 32015 ft 482 kts 70°
2026-04-21 18:50 51.70592 -0.03801 32320 ft 484 kts 70°
2026-04-21 18:51 51.71397 0.01394 32609 ft 484 kts 70°
2026-04-21 18:51 51.72205 0.06653 33048 ft 482 kts 70°
2026-04-21 18:51 51.73009 0.11903 33458 ft 481 kts 70°
2026-04-21 18:51 51.73808 0.17120 33857 ft 479 kts 70°
2026-04-21 18:52 51.74607 0.22334 34282 ft 478 kts 70°
2026-04-21 18:52 51.75404 0.27533 34616 ft 477 kts 70°
2026-04-21 18:52 51.76201 0.32723 34939 ft 476 kts 70°
2026-04-21 18:52 51.76994 0.37905 35270 ft 475 kts 71°
2026-04-21 18:53 51.77784 0.43081 35580 ft 474 kts 71°
2026-04-21 18:53 51.78569 0.48250 35882 ft 474 kts 71°
2026-04-21 18:53 51.79350 0.53413 36213 ft 472 kts 72°
2026-04-21 18:53 51.80126 0.58562 36516 ft 471 kts 72°
2026-04-21 18:54 51.80914 0.63692 36821 ft 469 kts 70°
2026-04-21 18:54 51.82006 0.68619 37104 ft 463 kts 63°
2026-04-21 18:54 51.83263 0.73411 37300 ft 463 kts 63°
2026-04-21 18:55 51.85334 0.81378 37340 ft 462 kts 64°
2026-04-21 18:55 51.88215 0.92602 37344 ft 462 kts 64°
2026-04-21 18:56 51.90677 1.02205 37361 ft 460 kts 64°
2026-04-21 18:56 51.93124 1.11772 37347 ft 459 kts 64°
2026-04-21 18:57 51.95560 1.21338 37352 ft 459 kts 64°
2026-04-21 18:57 51.97985 1.30922 37354 ft 459 kts 64°
2026-04-21 18:58 52.00404 1.40521 37355 ft 460 kts 64°
2026-04-21 18:58 52.02821 1.50115 37377 ft 460 kts 64°
2026-04-21 18:59 52.05225 1.59727 37376 ft 459 kts 65°
2026-04-21 18:59 52.07611 1.69332 37372 ft 458 kts 65°
2026-04-21 19:00 52.09988 1.78928 37369 ft 457 kts 65°
2026-04-21 19:00 52.12357 1.88522 37368 ft 457 kts 65°
2026-04-21 19:01 52.14719 1.98120 37379 ft 457 kts 65°
2026-04-21 19:01 52.17072 2.07718 37380 ft 456 kts 65°
2026-04-21 19:02 52.19398 2.17249 37373 ft 455 kts 65°
2026-04-21 19:02 52.21723 2.26850 37369 ft 455 kts 65°
2026-04-21 19:03 52.24034 2.36446 37366 ft 455 kts 65°
2026-04-21 19:03 52.26350 2.46082 37377 ft 455 kts 65°
2026-04-21 19:04 52.28643 2.55625 37378 ft 454 kts 65°
2026-04-21 19:04 52.30893 2.65310 37376 ft 454 kts 70°
2026-04-21 19:05 52.32630 2.75133 37371 ft 453 kts 71°
2026-04-21 19:05 52.34367 2.85030 37371 ft 453 kts 71°
2026-04-21 19:06 52.36093 2.94929 37371 ft 452 kts 71°
2026-04-21 19:06 52.37818 3.04832 37381 ft 452 kts 71°
2026-04-21 19:07 52.39565 3.14712 37372 ft 450 kts 67°
2026-04-21 19:07 52.42361 3.23768 37360 ft 445 kts 57°
2026-04-21 19:08 52.45460 3.32558 37361 ft 445 kts 57°
2026-04-21 19:08 52.48530 3.41368 37355 ft 445 kts 57°
2026-04-21 19:09 52.51593 3.50205 37372 ft 445 kts 58°
2026-04-21 19:09 52.54634 3.58978 37380 ft 444 kts 58°
2026-04-21 19:10 52.57679 3.67795 37378 ft 444 kts 58°
2026-04-21 19:10 52.60718 3.76634 37378 ft 443 kts 58°
2026-04-21 19:11 52.63743 3.85460 37379 ft 442 kts 58°
2026-04-21 19:11 52.66755 3.94275 37374 ft 442 kts 58°
2026-04-21 19:12 52.69764 4.03101 37383 ft 442 kts 59°
2026-04-21 19:12 52.72758 4.11941 37390 ft 441 kts 59°
2026-04-21 19:13 52.75735 4.20759 37389 ft 440 kts 59°
2026-04-21 19:13 52.78710 4.29589 37381 ft 439 kts 59°
2026-04-21 19:14 52.81674 4.38412 37376 ft 439 kts 59°
2026-04-21 19:14 52.84627 4.47250 37384 ft 439 kts 59°
2026-04-21 19:15 52.87572 4.56107 37386 ft 439 kts 59°
2026-04-21 19:15 52.90514 4.64956 37388 ft 439 kts 59°
2026-04-21 19:16 52.93431 4.73761 37391 ft 438 kts 60°
2026-04-21 19:16 52.96372 4.82680 37385 ft 438 kts 60°
2026-04-21 19:17 53.00710 4.95903 37361 ft 437 kts 60°
2026-04-21 19:17 53.03603 5.04762 37373 ft 436 kts 60°
2026-04-21 19:18 53.06484 5.13629 37393 ft 436 kts 61°
2026-04-21 19:18 53.09361 5.22497 37397 ft 435 kts 61°
2026-04-21 19:19 53.12231 5.31362 37390 ft 435 kts 61°
2026-04-21 19:19 53.15090 5.40235 37377 ft 434 kts 61°
2026-04-21 19:20 53.17934 5.49119 37373 ft 434 kts 62°
2026-04-21 19:20 53.20770 5.58009 37379 ft 434 kts 62°
2026-04-21 19:21 53.23604 5.66904 37399 ft 434 kts 62°
2026-04-21 19:21 53.26434 5.75809 37389 ft 434 kts 62°
2026-04-21 19:22 53.29240 5.84684 37390 ft 434 kts 62°
2026-04-21 19:22 53.32056 5.93625 37392 ft 435 kts 62°
2026-04-21 19:23 53.34865 6.02573 37392 ft 435 kts 62°
2026-04-21 19:23 53.37670 6.11546 37395 ft 435 kts 62°
2026-04-21 19:24 53.40470 6.20529 37411 ft 435 kts 62°
2026-04-21 19:24 53.43270 6.29525 37406 ft 435 kts 62°
2026-04-21 19:25 53.46054 6.38539 37406 ft 435 kts 62°
2026-04-21 19:25 53.48830 6.47570 37406 ft 435 kts 62°
2026-04-21 19:26 53.51597 6.56616 37393 ft 435 kts 63°
2026-04-21 19:26 53.54635 6.65396 37397 ft 435 kts 52°
2026-04-21 19:27 53.58674 6.72966 37398 ft 434 kts 48°
2026-04-21 19:27 53.62744 6.80465 37412 ft 434 kts 48°
2026-04-21 19:28 53.66800 6.87990 37406 ft 433 kts 48°
2026-04-21 19:28 53.70847 6.95521 37404 ft 433 kts 48°
2026-04-21 19:29 53.74889 7.03050 37405 ft 433 kts 48°
2026-04-21 19:29 53.78906 7.10547 37399 ft 432 kts 48°
2026-04-21 19:30 53.82932 7.18092 37393 ft 432 kts 48°
2026-04-21 19:30 53.86953 7.25664 37403 ft 432 kts 48°
2026-04-21 19:31 53.90967 7.33234 37402 ft 432 kts 48°
2026-04-21 19:31 53.94977 7.40812 37416 ft 431 kts 48°
2026-04-21 19:32 53.98985 7.48394 37416 ft 431 kts 48°
2026-04-21 19:32 54.02976 7.55996 37419 ft 430 kts 49°
2026-04-21 19:33 54.06948 7.63606 37415 ft 430 kts 49°
2026-04-21 19:33 54.10924 7.71227 37418 ft 430 kts 49°
2026-04-21 19:34 54.14891 7.78851 37417 ft 430 kts 49°
2026-04-21 19:34 54.18858 7.86493 37408 ft 430 kts 49°
2026-04-21 19:35 54.24772 7.97922 37402 ft 430 kts 49°
2026-04-21 19:36 54.28717 8.05601 37421 ft 430 kts 49°
2026-04-21 19:36 54.32665 8.13297 37412 ft 430 kts 49°
2026-04-21 19:37 54.35942 8.19701 37410 ft 430 kts 49°
2026-04-21 19:37 54.39880 8.27421 37403 ft 430 kts 49°
2026-04-21 19:38 54.43813 8.35151 37408 ft 430 kts 49°
2026-04-21 19:38 54.47746 8.42901 37400 ft 430 kts 49°
2026-04-21 19:39 54.51664 8.50660 37394 ft 430 kts 49°
2026-04-21 19:39 54.55584 8.58433 37407 ft 430 kts 49°
2026-04-21 19:40 54.59498 8.66225 37421 ft 430 kts 49°
2026-04-21 19:40 54.61443 8.70107 37062 ft 427 kts 49°
2026-04-21 19:40 54.63381 8.73982 36410 ft 426 kts 50°
2026-04-21 19:40 54.65310 8.77847 35785 ft 424 kts 50°
2026-04-21 19:41 54.67233 8.81701 35168 ft 422 kts 50°
2026-04-21 19:41 54.69142 8.85538 34545 ft 421 kts 50°
2026-04-21 19:41 54.71045 8.89376 33828 ft 419 kts 50°
2026-04-21 19:41 54.72938 8.93199 33045 ft 418 kts 51°
2026-04-21 19:42 54.74833 8.97027 32237 ft 418 kts 51°
2026-04-21 19:42 54.76724 9.00848 31432 ft 418 kts 51°
2026-04-21 19:42 54.78617 9.04671 30613 ft 418 kts 51°
2026-04-21 19:42 54.80507 9.08495 29748 ft 416 kts 52°
2026-04-21 19:43 54.82373 9.12279 29067 ft 410 kts 52°
2026-04-21 19:43 54.84214 9.16026 28508 ft 406 kts 52°
2026-04-21 19:43 54.86021 9.19713 28352 ft 406 kts 52°
2026-04-21 19:44 54.89735 9.27121 28390 ft 407 kts 51°
2026-04-21 19:44 54.93490 9.34449 28398 ft 405 kts 51°
2026-04-21 19:45 54.97223 9.41780 28401 ft 404 kts 51°
2026-04-21 19:45 55.00935 9.49142 28401 ft 404 kts 51°
2026-04-21 19:45 55.02790 9.52835 28138 ft 403 kts 51°
2026-04-21 19:46 55.04634 9.56510 27864 ft 402 kts 51°
2026-04-21 19:46 55.06467 9.60168 27600 ft 400 kts 51°
2026-04-21 19:46 55.08292 9.63832 27332 ft 398 kts 52°
2026-04-21 19:46 55.09895 9.67732 27076 ft 394 kts 60°
2026-04-21 19:47 55.11164 9.71958 26813 ft 392 kts 67°
2026-04-21 19:47 55.12089 9.76407 26557 ft 390 kts 73°
2026-04-21 19:47 55.12890 9.80923 26298 ft 388 kts 73°
2026-04-21 19:47 55.13695 9.85413 26034 ft 388 kts 73°
2026-04-21 19:48 55.14504 9.89904 25781 ft 387 kts 73°
2026-04-21 19:48 55.15309 9.94387 25544 ft 385 kts 72°
2026-04-21 19:48 55.16101 9.98837 25295 ft 382 kts 72°
2026-04-21 19:48 55.16888 10.03273 25054 ft 381 kts 72°
2026-04-21 19:49 55.17659 10.07625 24816 ft 379 kts 72°
2026-04-21 19:49 55.18435 10.12025 24573 ft 378 kts 73°
2026-04-21 19:49 55.19205 10.16414 24335 ft 377 kts 73°
2026-04-21 19:49 55.19970 10.20790 24099 ft 376 kts 73°
2026-04-21 19:50 55.20733 10.25156 23833 ft 374 kts 73°
2026-04-21 19:50 55.21496 10.29509 23551 ft 373 kts 73°
2026-04-21 19:50 55.22253 10.33847 23274 ft 372 kts 73°
2026-04-21 19:50 55.23006 10.38175 22997 ft 371 kts 73°
2026-04-21 19:51 55.23757 10.42499 22727 ft 370 kts 73°
2026-04-21 19:51 55.24504 10.46812 22454 ft 369 kts 73°
2026-04-21 19:51 55.25246 10.51115 22186 ft 368 kts 73°
2026-04-21 19:51 55.25982 10.55408 21918 ft 367 kts 73°
2026-04-21 19:52 55.26714 10.59696 21658 ft 367 kts 73°
2026-04-21 19:52 55.27445 10.63976 21391 ft 366 kts 73°
2026-04-21 19:52 55.28176 10.68244 21129 ft 365 kts 73°
2026-04-21 19:52 55.28910 10.72500 20871 ft 364 kts 73°
2026-04-21 19:53 55.29738 10.76690 20613 ft 363 kts 65°
2026-04-21 19:53 55.30852 10.80670 20405 ft 363 kts 64°
2026-04-21 19:53 55.31969 10.84646 20325 ft 362 kts 64°
2026-04-21 19:53 55.33079 10.88593 19805 ft 360 kts 64°
2026-04-21 19:54 55.34183 10.92518 19272 ft 358 kts 64°
2026-04-21 19:54 55.35283 10.96449 18763 ft 357 kts 64°
2026-04-21 19:54 55.36372 11.00357 18183 ft 355 kts 64°
2026-04-21 19:54 55.37438 11.04197 17634 ft 353 kts 64°
2026-04-21 19:55 55.38511 11.08067 17103 ft 351 kts 64°
2026-04-21 19:55 55.39580 11.11928 16701 ft 351 kts 64°
2026-04-21 19:55 55.40645 11.15779 16317 ft 349 kts 64°
2026-04-21 19:55 55.41703 11.19599 15938 ft 347 kts 64°
2026-04-21 19:56 55.42757 11.23414 15554 ft 345 kts 64°
2026-04-21 19:56 55.43805 11.27211 15179 ft 344 kts 64°
2026-04-21 19:56 55.44844 11.30988 14809 ft 343 kts 64°
2026-04-21 19:56 55.45880 11.34761 14445 ft 341 kts 64°
2026-04-21 19:57 55.46914 11.38530 14071 ft 340 kts 64°
2026-04-21 19:57 55.47938 11.42270 13660 ft 339 kts 64°
2026-04-21 19:57 55.48957 11.46003 13264 ft 337 kts 64°
2026-04-21 19:57 55.49970 11.49718 12871 ft 335 kts 64°
2026-04-21 19:58 55.50979 11.53419 12474 ft 334 kts 64°
2026-04-21 19:58 55.51982 11.57103 12090 ft 332 kts 64°
2026-04-21 19:58 55.52980 11.60774 11706 ft 331 kts 64°
2026-04-21 19:58 55.53969 11.64423 11329 ft 329 kts 64°
2026-04-21 19:59 55.54945 11.68029 10945 ft 322 kts 64°
2026-04-21 19:59 55.55898 11.71554 10595 ft 314 kts 64°
2026-04-21 19:59 55.56816 11.74954 10473 ft 300 kts 64°
2026-04-21 19:59 55.57695 11.78225 10348 ft 288 kts 64°
2026-04-21 20:00 55.58533 11.81350 10225 ft 276 kts 64°
2026-04-21 20:00 55.59346 11.84373 9985 ft 269 kts 64°
2026-04-21 20:00 55.60147 11.87349 9615 ft 267 kts 64°
2026-04-21 20:00 55.60939 11.90304 9228 ft 266 kts 64°
2026-04-21 20:01 55.61730 11.93258 8827 ft 264 kts 64°
2026-04-21 20:01 55.62513 11.96187 8420 ft 263 kts 64°
2026-04-21 20:01 55.63295 11.99120 8021 ft 262 kts 64°
2026-04-21 20:01 55.64072 12.02035 7617 ft 261 kts 64°
2026-04-21 20:02 55.64844 12.04931 7220 ft 260 kts 64°
2026-04-21 20:02 55.65612 12.07828 6826 ft 259 kts 64°
2026-04-21 20:02 55.66373 12.10703 6407 ft 258 kts 64°
2026-04-21 20:02 55.67132 12.13574 6007 ft 256 kts 64°
2026-04-21 20:03 55.67881 12.16418 5587 ft 254 kts 64°
2026-04-21 20:03 55.68625 12.19237 5200 ft 251 kts 64°
2026-04-21 20:03 55.69363 12.22024 5013 ft 249 kts 64°
2026-04-21 20:03 55.70103 12.24818 4988 ft 250 kts 64°
2026-04-21 20:04 55.70837 12.27592 4596 ft 248 kts 63°
2026-04-21 20:04 55.71570 12.30367 4125 ft 248 kts 63°
2026-04-21 20:04 55.72292 12.33109 3669 ft 249 kts 63°
2026-04-21 20:04 55.73025 12.35892 3200 ft 249 kts 63°
2026-04-21 20:05 55.73754 12.38664 3008 ft 248 kts 63°
2026-04-21 20:05 55.74487 12.41457 3012 ft 250 kts 63°
2026-04-21 20:05 55.75220 12.44256 3020 ft 250 kts 63°
2026-04-21 20:05 55.75955 12.47071 3013 ft 252 kts 62°
2026-04-21 20:06 55.76694 12.49903 3010 ft 253 kts 62°
2026-04-21 20:06 55.77430 12.52731 3010 ft 253 kts 62°
2026-04-21 20:06 55.78168 12.55568 3010 ft 253 kts 62°
2026-04-21 20:06 55.78904 12.58394 3008 ft 250 kts 62°
2026-04-21 20:07 55.79602 12.61094 3005 ft 231 kts 62°
2026-04-21 20:07 55.80258 12.63634 3007 ft 223 kts 62°
2026-04-21 20:07 55.80905 12.66133 3008 ft 223 kts 62°
2026-04-21 20:07 55.81550 12.68633 3008 ft 222 kts 62°
2026-04-21 20:08 55.82193 12.71127 3005 ft 218 kts 62°
2026-04-21 20:08 55.82592 12.73622 3000 ft 210 kts 88°
2026-04-21 20:08 55.82201 12.76141 3020 ft 215 kts 112°
2026-04-21 20:08 55.81526 12.78510 3010 ft 215 kts 115°
2026-04-21 20:09 55.80821 12.80852 3008 ft 214 kts 115°
2026-04-21 20:09 55.80113 12.83181 3007 ft 214 kts 116°
2026-04-21 20:09 55.79151 12.85201 3002 ft 218 kts 143°
2026-04-21 20:09 55.77772 12.86333 3007 ft 220 kts 166°
2026-04-21 20:10 55.76247 12.86493 3008 ft 220 kts 189°
2026-04-21 20:10 55.74809 12.85656 3007 ft 217 kts 212°
2026-04-21 20:10 55.73624 12.84031 2937 ft 215 kts 225°
2026-04-21 20:10 55.72530 12.82315 2687 ft 205 kts 225°
2026-04-21 20:11 55.71486 12.80681 2438 ft 197 kts 225°
2026-04-21 20:11 55.70468 12.79091 2170 ft 194 kts 225°
2026-04-21 20:11 55.69459 12.77517 1903 ft 192 kts 225°
2026-04-21 20:11 55.68477 12.75988 1638 ft 182 kts 225°
2026-04-21 20:12 55.67578 12.74594 1402 ft 162 kts 226°
2026-04-21 20:12 55.66767 12.73341 1185 ft 150 kts 226°
2026-04-21 20:12 55.66254 12.72537 1044 ft 146 kts 227°
2026-04-21 20:12 55.65266 12.70999 769 ft 135 kts 226°
2026-04-21 20:13 55.64567 12.69906 599 ft 133 kts 224°
2026-04-21 20:13 55.63874 12.68827 430 ft 132 kts 223°
2026-04-21 20:13 55.63186 12.67757 234 ft 132 kts 223°
2026-04-21 20:13 55.62493 12.66681 62 ft 132 kts 224°
2026-04-21 20:14 55.61853 12.65683 27 ft 107 kts 222°
2026-04-21 20:14 55.61422 12.65019 25 ft 56 kts 220°
2026-04-21 20:14 55.61243 12.64552 24 ft 45 kts 252°
2026-04-21 20:14 55.61189 12.64224 24 ft 16 kts 269°
2026-04-21 20:15 55.61261 12.64110 24 ft 16 kts
2026-04-21 20:15 55.61360 12.64201 25 ft 17 kts 32°
2026-04-21 20:15 55.61458 12.64315 24 ft 12 kts 33°
2026-04-21 20:15 55.61530 12.64397 26 ft 13 kts 32°
2026-04-21 20:16 55.61613 12.64492 24 ft 16 kts 33°
2026-04-21 20:16 55.61713 12.64609 24 ft 18 kts 33°
2026-04-21 20:16 55.61822 12.64733 25 ft 20 kts 33°
2026-04-21 20:16 55.61951 12.64882 23 ft 23 kts 33°
2026-04-21 20:17 55.62088 12.65040 26 ft 24 kts 33°
2026-04-21 20:17 55.62166 12.65132 24 ft 11 kts 33°
2026-04-21 20:17 55.62248 12.65154 24 ft 13 kts 319°
2026-04-21 20:17 55.62303 12.65007 24 ft 17 kts 303°
2026-04-21 20:18 55.62352 12.64876 25 ft 19 kts 303°
2026-04-21 20:18 55.62460 12.64777 24 ft 14 kts 356°
2026-04-21 20:18 55.62540 12.64771 24 ft 9 kts
2026-04-21 20:18 55.62556 12.64858 24 ft 7 kts 90°
2026-04-21 20:19 55.62557 12.64882 24 ft 1 kts 89°